Weather History for Scottsdale, AZ

Change the Weather History Date:

Wednesday, November 7, 2012

  Actual Average Record
Temperature  
Mean Temperature 72 °F -  
Max Temperature 88 °F 73 °F 89 °F (2007)
Min Temperature 57 °F 52 °F 42 °F (2000)
Cooling Degree Days 8    
Growing Degree Days 22 (Base 50)    
Moisture  
Dew Point 33 °F    
Average Humidity 27    
Maximum Humidity 47    
Minimum Humidity 11    
Precipitation  
Precipitation 0.00 in - - ()
Sea Level Pressure  
Sea Level Pressure 29.93 in    
Wind  
Wind Speed 1 mph (WSW)    
Max Wind Speed 6 mph    
Max Gust Speed -    
Visibility 10 miles    
Events      
Averages and records for this station are not official NWS values.
T = Trace of Precipitation, MM = Missing Value Source: NWS Daily Summary

Daily Weather History Graph

Daily Weather History Graph

Search for Another Location

Airport:

Trip Planner

Search our weather history database for the weather conditions in past years. The results will help you decide how hot, cold, wet, or windy it might be!

Date:

Astronomy

Nov. 07, 2012 Rise Set
Actual Time 6:52 AM MST 5:29 PM MST
Civil Twilight 6:26 AM MST 5:55 PM MST
Nautical Twilight 5:56 AM MST 6:25 PM MST
Astronomical Twilight 5:27 AM MST 6:54 PM MST
Moon 12:09 AM MST (11/7) 1:23 PM MST (11/7)
Length of Visible Light 11h 29m
Length of Day
10h 37m
Last Quarter, 42% of the Moon is Illuminated
Nov 7
Last Quarter
Nov 13
New
Nov 20
First Quarter
Nov 28
Full
Dec 6
Last Quarter

Hourly Weather History & Observations

Time (MST) Temp. Dew Point Humidity Pressure Visibility Wind Dir Wind Speed Gust Speed Precip Events Conditions
12:53 AM 62.1 °F 36.0 °F 38% 29.98 in 10.0 mi Calm Calm - N/A   Clear
1:53 AM 64.0 °F 34.0 °F 33% 29.97 in 10.0 mi Calm Calm - N/A   Clear
2:53 AM 61.0 °F 37.0 °F 41% 29.97 in 10.0 mi Calm Calm - N/A   Clear
3:53 AM 59.0 °F 36.0 °F 42% 29.96 in 10.0 mi SSW 3.5 mph - N/A   Clear
4:53 AM 59.0 °F 37.0 °F 44% 29.96 in 10.0 mi NE 3.5 mph - N/A   Clear
5:53 AM 57.9 °F 37.9 °F 47% 29.98 in 10.0 mi Calm Calm - N/A   Clear
6:53 AM 59.0 °F 36.0 °F 42% 29.99 in 10.0 mi NNW 3.5 mph - N/A   Clear
7:53 AM 62.1 °F 36.0 °F 38% 30.00 in 10.0 mi Calm Calm - N/A   Clear
8:53 AM 66.9 °F 33.1 °F 28% 30.01 in 10.0 mi Calm Calm - N/A   Clear
9:53 AM 73.0 °F 35.1 °F 25% 30.00 in 10.0 mi Calm Calm - N/A   Clear
10:53 AM 77.0 °F 35.1 °F 22% 29.99 in 10.0 mi SW 3.5 mph - N/A   Clear
11:53 AM 82.0 °F 33.1 °F 17% 29.95 in 10.0 mi Calm Calm - N/A   Clear
12:53 PM 84.0 °F 28.0 °F 13% 29.92 in 10.0 mi WSW 5.8 mph - N/A   Clear
1:53 PM 86.0 °F 30.0 °F 13% 29.89 in 10.0 mi West 4.6 mph - N/A   Clear
2:53 PM 87.1 °F 28.9 °F 12% 29.87 in 10.0 mi South 3.5 mph - N/A   Clear
3:53 PM 88.0 °F 27.0 °F 11% 29.86 in 10.0 mi West 4.6 mph - N/A   Clear
4:53 PM 86.0 °F 27.0 °F 12% 29.85 in 10.0 mi Calm Calm - N/A   Clear
5:53 PM 82.0 °F 30.0 °F 15% 29.86 in 10.0 mi Calm Calm - N/A   Clear
6:53 PM 79.0 °F 30.9 °F 17% 29.87 in 10.0 mi Calm Calm - N/A   Clear
7:53 PM 75.0 °F 33.1 °F 22% 29.87 in 10.0 mi Calm Calm - N/A   Clear
8:53 PM 72.0 °F 32.0 °F 23% 29.87 in 10.0 mi Calm Calm - N/A   Clear
9:53 PM 70.0 °F 34.0 °F 27% 29.87 in 10.0 mi Calm Calm - N/A   Clear
10:53 PM 68.0 °F 36.0 °F 31% 29.86 in 9.0 mi Calm Calm - N/A   Clear
11:53 PM 66.0 °F 36.0 °F 33% 29.86 in 10.0 mi Calm Calm - N/A   Clear